Change the Weather History Date:

Monday, May 13, 2013

  Actual Average (KLJF) Record (KLJF)
Temperature  
Mean Temperature 64 °F -  
Max Temperature 87 °F 69 °F 93 °F (2007)
Min Temperature 41 °F 42 °F 30 °F (1953)
Degree Days  
Heating Degree Days 1    
Growing Degree Days 14 (Base 50)    
Moisture  
Dew Point 29 °F    
Average Humidity 30    
Maximum Humidity 53    
Minimum Humidity 17    
Precipitation  
Precipitation 0.00 in - - ()
Sea Level Pressure  
Sea Level Pressure 29.88 in    
Wind  
Wind Speed 9 mph (South)    
Max Wind Speed 22 mph    
Max Gust Speed 26 mph    
Visibility 10 miles    
Events      
Averages and records for this station are not official NWS values.
T = Trace of Precipitation, MM = Missing Value Source: NWS Daily Summary

Daily Weather History Graph

Daily Weather History Graph

Search for Another Location

Airport or City:

Trip Planner

Search our weather history database for the weather conditions in past years. The results will help you decide how hot, cold, wet, or windy it might be!

Date:

Astronomy

May. 13, 2013 Rise Set
Actual Time 5:53 AM CDT 8:41 PM CDT
Civil Twilight 5:19 AM CDT 9:15 PM CDT
Nautical Twilight 4:35 AM CDT 9:58 PM CDT
Astronomical Twilight 3:45 AM CDT 10:49 PM CDT
Moon 8:38 AM CDT (5/13) 11:51 PM CDT (5/13)
Length of Visible Light 15h 56m
Length of Day
14h 48m
Waxing Crescent, 12% of the Moon is Illuminated
May 13
Waxing Crescent
May 17
First Quarter
May 24
Full
May 31
Last Quarter
Jun 8
New

Hourly Weather History & Observations

Time (CDT) Temp. Windchill Dew Point Humidity Pressure Visibility Wind Dir Wind Speed Gust Speed Precip Events Conditions
12:15 AM 44.6 °F 42.2 °F 21.2 °F 39% 30.10 in 10.0 mi SE 4.6 mph - N/A   Clear
12:35 AM 44.6 °F 40.7 °F 21.2 °F 39% 30.11 in 10.0 mi SE 6.9 mph - N/A   Clear
12:56 AM 42.8 °F 39.3 °F 21.2 °F 42% 30.10 in 10.0 mi SE 5.8 mph - N/A   Clear
1:15 AM 41.0 °F 37.1 °F 23.0 °F 49% 30.09 in 10.0 mi SE 5.8 mph - N/A   Clear
1:35 AM 41.0 °F 37.1 °F 23.0 °F 49% 30.09 in 10.0 mi ESE 5.8 mph - N/A   Clear
1:55 AM 42.8 °F 39.3 °F 24.8 °F 49% 30.09 in 10.0 mi ESE 5.8 mph - N/A   Clear
2:15 AM 42.8 °F 38.6 °F 24.8 °F 49% 30.08 in 10.0 mi SE 6.9 mph - N/A   Clear
2:35 AM 41.0 °F 37.1 °F 24.8 °F 53% 30.08 in 10.0 mi ESE 5.8 mph - N/A   Clear
2:55 AM 42.8 °F 38.0 °F 24.8 °F 49% 30.08 in 10.0 mi SE 8.1 mph - N/A   Clear
3:15 AM 41.0 °F 37.1 °F 24.8 °F 53% 30.07 in 10.0 mi SSE 5.8 mph - N/A   Clear
3:35 AM 42.8 °F 39.3 °F 23.0 °F 46% 30.06 in 10.0 mi SSE 5.8 mph - N/A   Clear
3:55 AM 42.8 °F 39.3 °F 21.2 °F 42% 30.06 in 10.0 mi SE 5.8 mph - N/A   Clear
4:15 AM 42.8 °F 40.1 °F 23.0 °F 46% 30.06 in 10.0 mi SSE 4.6 mph - N/A   Clear
4:35 AM 44.6 °F 42.2 °F 23.0 °F 43% 30.06 in 10.0 mi SSE 4.6 mph - N/A   Clear
4:55 AM 44.6 °F 41.4 °F 21.2 °F 39% 30.05 in 10.0 mi SE 5.8 mph - N/A   Clear
5:15 AM 44.6 °F 41.4 °F 21.2 °F 39% 30.05 in 10.0 mi SSE 5.8 mph - N/A   Clear
5:35 AM 44.6 °F 41.4 °F 21.2 °F 39% 30.05 in 10.0 mi SSE 5.8 mph - N/A   Clear
5:55 AM 44.6 °F 41.4 °F 21.2 °F 39% 30.05 in 10.0 mi SSE 5.8 mph - N/A   Clear
6:15 AM 44.6 °F 40.7 °F 21.2 °F 39% 30.05 in 10.0 mi SE 6.9 mph - N/A   Clear
6:35 AM 46.4 °F 42.9 °F 21.2 °F 37% 30.04 in 10.0 mi SE 6.9 mph - N/A   Scattered Clouds
6:55 AM 48.2 °F - 21.2 °F 34% 30.05 in 10.0 mi SE 5.8 mph - N/A   Scattered Clouds
7:15 AM 50.0 °F - 21.2 °F 32% 30.04 in 10.0 mi SE 9.2 mph - N/A   Clear
7:35 AM 51.8 °F - 21.2 °F 30% 30.03 in 10.0 mi SSE 8.1 mph - N/A   Clear
7:55 AM 51.8 °F - 21.2 °F 30% 30.03 in 10.0 mi SSE 10.4 mph - N/A   Clear
8:15 AM 53.6 °F - 19.4 °F 26% 30.02 in 10.0 mi SE 10.4 mph - N/A   Clear
8:35 AM 55.4 °F - 19.4 °F 25% 30.01 in 10.0 mi SSE 12.7 mph - N/A   Clear
8:55 AM 55.4 °F - 19.4 °F 25% 30.00 in 10.0 mi SSE 11.5 mph - N/A   Clear
9:15 AM 57.2 °F - 19.4 °F 23% 29.99 in 10.0 mi SSE 15.0 mph - N/A   Clear
9:35 AM 57.2 °F - 19.4 °F 23% 29.97 in 10.0 mi SE 16.1 mph 19.6 mph N/A   Clear
9:56 AM 60.8 °F - 19.4 °F 20% 29.95 in 10.0 mi SSE 13.8 mph 20.7 mph N/A   Clear
10:15 AM 60.8 °F - 19.4 °F 20% 29.95 in 10.0 mi SSE 15.0 mph 25.3 mph N/A   Clear
10:35 AM 62.6 °F - 21.2 °F 20% 29.95 in 10.0 mi SSE 18.4 mph - N/A   Clear
10:56 AM 62.6 °F - 24.8 °F 24% 29.93 in 10.0 mi SSE 15.0 mph 23.0 mph N/A   Clear
11:15 AM 64.4 °F - 24.8 °F 22% 29.92 in 10.0 mi SSE 16.1 mph 21.9 mph N/A   Clear
11:35 AM 68.0 °F - 26.6 °F 21% 29.90 in 10.0 mi SSE 18.4 mph 23.0 mph N/A   Clear
11:56 AM 69.8 °F - 28.4 °F 21% 29.89 in 10.0 mi SSE 21.9 mph 26.5 mph N/A   Clear
12:15 PM 69.8 °F - 28.4 °F 21% 29.87 in 10.0 mi SSE 21.9 mph 26.5 mph N/A   Clear
12:35 PM 71.6 °F - 30.2 °F 22% 29.87 in 10.0 mi SSE 12.7 mph 25.3 mph N/A   Clear
12:56 PM 73.4 °F - 35.6 °F 25% 29.85 in 10.0 mi South 11.5 mph 23.0 mph N/A   Clear
1:15 PM 75.2 °F - 37.4 °F 25% 29.84 in 10.0 mi South 13.8 mph 26.5 mph N/A   Clear
1:35 PM 75.2 °F - 37.4 °F 25% 29.82 in 10.0 mi South 12.7 mph 26.5 mph N/A   Clear
1:55 PM 77.0 °F - 37.4 °F 24% 29.81 in 10.0 mi South 12.7 mph 26.5 mph N/A   Clear
2:15 PM 77.0 °F - 37.4 °F 24% 29.80 in 10.0 mi South 12.7 mph 24.2 mph N/A   Clear
2:35 PM 78.8 °F - 37.4 °F 23% 29.79 in 10.0 mi South 11.5 mph 21.9 mph N/A   Clear
3:35 PM 82.4 °F - 37.4 °F 20% 29.77 in 10.0 mi SSW 9.2 mph 17.3 mph N/A   Clear
3:55 PM 82.4 °F - 37.4 °F 20% 29.75 in 10.0 mi SSW 11.5 mph 23.0 mph N/A   Clear
4:15 PM 84.2 °F - 37.4 °F 19% 29.73 in 10.0 mi SW 18.4 mph 25.3 mph N/A   Clear
4:35 PM 84.2 °F - 37.4 °F 19% 29.72 in 10.0 mi SSW 11.5 mph 25.3 mph N/A   Clear
4:55 PM 86.0 °F - 37.4 °F 18% 29.72 in 10.0 mi SW 19.6 mph 26.5 mph N/A   Clear
5:15 PM 86.0 °F - 37.4 °F 18% 29.71 in 10.0 mi WSW 15.0 mph 24.2 mph N/A   Clear
5:35 PM 87.8 °F - 39.2 °F 18% 29.70 in 10.0 mi West 12.7 mph - N/A   Clear
5:55 PM 87.8 °F - 37.4 °F 17% 29.69 in 10.0 mi West 13.8 mph - N/A   Clear
6:35 PM 87.8 °F - 37.4 °F 17% 29.67 in 10.0 mi SW 10.4 mph - N/A   Clear
7:15 PM 86.0 °F - 39.2 °F 19% 29.66 in 10.0 mi SW 10.4 mph - N/A   Clear
7:35 PM 84.2 °F - 39.2 °F 20% 29.65 in 10.0 mi SW 6.9 mph - N/A   Clear
7:55 PM 84.2 °F - 39.2 °F 20% 29.65 in 10.0 mi SSW 6.9 mph - N/A   Clear
8:15 PM 82.4 °F - 41.0 °F 23% 29.65 in 10.0 mi SSW 5.8 mph - N/A   Clear
8:35 PM 82.4 °F - 41.0 °F 23% 29.65 in 10.0 mi SSW 10.4 mph - N/A   Clear
8:55 PM 77.0 °F - 42.8 °F 29% 29.65 in 10.0 mi WSW 9.2 mph - N/A   Clear
9:15 PM 78.8 °F - 37.4 °F 23% 29.66 in 10.0 mi West 9.2 mph - N/A   Clear
9:35 PM 77.0 °F - 35.6 °F 22% 29.66 in 10.0 mi West 10.4 mph - N/A   Clear
9:55 PM 73.4 °F - 37.4 °F 27% 29.67 in 10.0 mi West 8.1 mph - N/A   Clear
10:15 PM 73.4 °F - 37.4 °F 27% 29.68 in 10.0 mi West 9.2 mph - N/A   Clear
10:35 PM 73.4 °F - 37.4 °F 27% 29.68 in 10.0 mi West 9.2 mph - N/A   Clear
10:55 PM 71.6 °F - 37.4 °F 29% 29.69 in 10.0 mi West 6.9 mph - N/A   Clear
11:15 PM 71.6 °F - 35.6 °F 27% 29.69 in 10.0 mi West 8.1 mph - N/A   Clear
11:35 PM 68.0 °F - 37.4 °F 33% 29.69 in 10.0 mi WNW 8.1 mph - N/A   Clear
11:55 PM 64.4 °F - 39.2 °F 40% 29.69 in 10.0 mi WNW 5.8 mph - N/A   Clear